Data for 07/29/2017

Time Sea-Level Adjusted Pressure Absolute Pressure Temperature Relative Humidity Dew Point   
(mb) (inHg) (mb) (inHg) (C) (F) (%) (C) (F)
00:05 1023 30.21 852 25.16 19.5 67.1 46 7.7 45.9
00:10 1023 30.21 852 25.16 19.4 66.8 46 7.5 45.5
00:15 1023 30.21 852 25.16 19.4 66.8 45 7.4 45.3
00:20 1023 30.21 852 25.16 19.4 67 45 7.4 45.4
00:25 1023 30.21 852 25.16 19.5 67.1 45 7.5 45.5
00:30 1023 30.21 852 25.16 19.5 67.1 44 7.2 44.9
00:35 1023 30.21 852 25.16 19.6 67.3 47 8 46.5
00:40 1023 30.21 852 25.16 19.5 67.1 46 7.8 46
00:45 1023 30.21 852 25.16 19.2 66.5 48 7.9 46.3
00:50 1023 30.21 852 25.16 19 66.2 51 8.7 47.6
00:55 1023 30.21 852 25.16 19 66.1 48 7.9 46.2
01:00 1023 30.21 852 25.16 18.9 66 46 7.3 45.1
01:05 1023 30.21 852 25.16 19 66.1 46 7.3 45.1
01:10 1023 30.21 852 25.16 18.9 66 46 7.2 45
01:15 1023 30.21 852 25.16 18.9 66 46 7.2 45
01:20 1023 30.21 852 25.16 18.8 65.9 46 7.2 45
01:25 1023 30.21 852 25.16 18.8 65.8 47 7.4 45.3
01:30 1023 30.21 852 25.16 18.7 65.6 47 7.1 44.8
01:35 1023 30.21 852 25.16 18.7 65.7 46 6.9 44.4
01:40 1023 30.21 852 25.16 18.8 65.8 46 6.9 44.4
01:45 1023 30.21 852 25.16 18.8 65.9 46 7 44.5
01:50 1023 30.21 852 25.16 18.7 65.7 46 6.9 44.5
01:55 1023 30.21 852 25.16 18.6 65.4 46 6.9 44.5
02:00 1022 30.18 852 25.16 18.6 65.6 46 6.8 44.3
02:05 1022 30.18 852 25.16 18.7 65.6 46 7 44.5
02:10 1022 30.18 852 25.16 18.6 65.4 46 6.8 44.2
02:15 1022 30.18 851 25.13 18.7 65.6 46 7.1 44.7
02:20 1022 30.18 851 25.13 18.5 65.2 47 6.9 44.5
02:25 1022 30.18 852 25.16 18.6 65.5 47 7.3 45.2
02:30 1022 30.18 852 25.16 19.1 66.4 45 7 44.6
02:35 1022 30.18 852 25.16 19.4 66.9 43 6.6 43.9
02:40 1022 30.18 852 25.16 19.5 67.2 43 6.7 44.1
02:45 1022 30.18 852 25.16 19.5 67.2 42 6.3 43.4
02:50 1023 30.21 852 25.16 19.4 67 42 6.2 43.1
02:55 1023 30.21 852 25.16 19.4 67 42 6.5 43.7
03:00 1023 30.21 852 25.16 19.2 66.5 44 6.9 44.5
03:05 1023 30.21 852 25.16 18.9 66.1 45 6.9 44.5
03:10 1023 30.21 852 25.16 18.6 65.4 48 7.4 45.3
03:15 1023 30.21 852 25.16 18.4 65 49 7.5 45.5
03:20 1023 30.21 852 25.16 18.1 64.7 51 7.9 46.2
03:25 1023 30.21 852 25.16 17.9 64.3 51 7.8 46.1
03:30 1023 30.21 852 25.16 17.8 64 52 7.8 46.1
03:35 1023 30.21 852 25.16 17.5 63.6 53 8 46.4
03:40 1023 30.21 852 25.16 17.4 63.2 54 7.9 46.3
03:45 1023 30.21 852 25.16 17.1 62.9 54 7.9 46.2
03:50 1023 30.21 852 25.16 17 62.6 54 7.9 46.1
03:55 1023 30.21 852 25.16 16.9 62.4 55 8 46.3
04:00 1023 30.21 852 25.16 16.7 62 56 8 46.5
04:05 1023 30.21 852 25.16 16.4 61.4 57 7.9 46.2
04:10 1023 30.21 853 25.19 16.1 61.1 56 7.4 45.3
04:15 1023 30.21 853 25.19 16.1 61.1 55 7.3 45.2
04:20 1023 30.21 853 25.19 16.1 60.9 56 7.4 45.2
04:25 1023 30.21 853 25.19 15.8 60.4 56 7.3 45.1
04:30 1024 30.24 853 25.19 15.5 59.9 58 7.3 45.2
04:35 1024 30.24 853 25.19 15.3 59.6 58 7.3 45.1
04:40 1024 30.24 853 25.19 15.2 59.4 59 7.2 45
04:45 1024 30.24 853 25.19 15.2 59.3 58 7 44.6
04:50 1024 30.24 853 25.19 15.2 59.3 58 7.1 44.8
04:55 1024 30.24 853 25.19 15 59 59 7.2 44.9
05:00 1024 30.24 853 25.19 14.8 58.7 59 6.9 44.5
05:05 1024 30.24 853 25.19 14.9 58.7 59 6.9 44.4
05:10 1024 30.24 853 25.19 14.9 58.8 59 7 44.6
05:15 1024 30.24 853 25.19 14.7 58.4 60 7.1 44.8
05:20 1024 30.24 853 25.19 14.4 58 59 6.6 43.8
05:25 1024 30.24 853 25.19 14.6 58.3 59 6.8 44.2
05:30 1024 30.24 853 25.19 14.6 58.3 59 6.9 44.4
05:35 1024 30.24 853 25.19 14.8 58.6 58 6.8 44.2
05:40 1024 30.24 853 25.19 15 59 58 6.9 44.5
05:45 1024 30.24 853 25.19 14.9 58.8 59 7 44.6
05:50 1024 30.24 853 25.19 15 59 58 6.8 44.3
05:55 1024 30.24 853 25.19 15.1 59.2 56 6.6 43.9
06:00 1024 30.24 853 25.19 15.4 59.6 56 6.6 43.9
06:05 1024 30.24 853 25.19 15.3 59.6 56 6.7 44
06:10 1024 30.24 853 25.19 15.4 59.7 56 6.8 44.3
06:15 1024 30.24 853 25.19 15.6 60.1 54 6.4 43.6
06:20 1024 30.24 853 25.19 15.8 60.4 55 6.9 44.5
06:25 1024 30.24 853 25.19 15.7 60.3 54 6.7 44
06:30 1024 30.24 853 25.19 15.9 60.7 55 7 44.6
06:35 1024 30.24 853 25.19 16.2 61.2 53 6.6 43.9
06:40 1024 30.24 853 25.19 16.7 62 52 6.8 44.2
06:45 1024 30.24 853 25.19 16.8 62.3 52 7.1 44.8
06:50 1024 30.24 854 25.22 17.1 62.7 52 7.1 44.8
06:55 1024 30.24 854 25.22 17.3 63.1 52 7.3 45.2
07:00 1024 30.24 854 25.22 17.5 63.4 53 7.8 46
07:05 1024 30.24 854 25.22 17.9 64.1 51 7.6 45.8
07:10 1024 30.24 854 25.22 18.5 65.2 50 7.9 46.2
07:15 1024 30.24 854 25.22 19.1 66.3 48 7.9 46.2
07:20 1025 30.27 854 25.22 19.6 67.2 46 7.9 46.3
07:25 1025 30.27 854 25.22 19.1 66.4 47 7.8 46.1
07:30 1025 30.27 854 25.22 19.1 66.3 49 8.1 46.6
07:35 1025 30.27 854 25.22 19.8 67.6 46 7.9 46.2
07:40 1025 30.27 854 25.22 20.5 68.9 44 7.9 46.2
07:45 1025 30.27 854 25.22 20.1 68.2 45 8.1 46.5
07:50 1025 30.27 854 25.22 20.9 69.6 43 8.1 46.6
07:55 1025 30.27 854 25.22 20.7 69.3 45 8.4 47.1
08:00 1025 30.27 854 25.22 20.6 69.1 43 7.8 46.1
08:05 1025 30.27 854 25.22 20.9 69.6 41 7.5 45.5
08:10 1024 30.24 854 25.22 21.1 70 40 7.1 44.8
08:15 1024 30.24 854 25.22 21.8 71.2 37 6.8 44.2
08:20 1024 30.24 854 25.22 22.4 72.3 36 7 44.6
08:25 1024 30.24 854 25.22 22.2 71.9 38 7.2 45
08:30 1024 30.24 854 25.22 22.3 72.1 35 6.3 43.3
08:35 1024 30.24 854 25.22 22.5 72.4 33 5.7 42.3
08:40 1024 30.24 854 25.22 23.3 74 32 5.7 42.3
08:45 1024 30.24 854 25.22 23.4 74 32 6.1 42.9
08:50 1024 30.24 854 25.22 23.3 74 32 6 42.8
08:55 1024 30.24 854 25.22 23.8 74.8 31 5.9 42.5
09:00 1024 30.24 854 25.22 23.9 75 31 6 42.7
09:05 1024 30.24 853 25.19 24.4 75.9 30 5.8 42.4
09:10 1024 30.24 854 25.22 24.5 76.1 30 5.8 42.5
09:15 1024 30.24 854 25.22 24.8 76.6 29 5.6 42
09:20 1024 30.24 854 25.22 25.3 77.5 28 5.7 42.2
09:25 1024 30.24 854 25.22 25.7 78.2 29 6.5 43.7
09:30 1024 30.24 854 25.22 26 78.8 28 6.1 43
09:35 1024 30.24 854 25.22 26.4 79.5 29 7.3 45.1
09:40 1024 30.24 854 25.22 26 78.8 29 6.7 44
09:45 1024 30.24 854 25.22 25.9 78.7 28 6.1 43
09:50 1024 30.24 854 25.22 26.1 79 29 7 44.6
09:55 1024 30.24 854 25.22 25.2 77.3 31 7.2 44.9
10:00 1024 30.24 854 25.22 25.9 78.5 30 7.2 44.9
10:05 1024 30.24 854 25.22 26.1 79 30 7.6 45.6
10:10 1024 30.24 854 25.22 26 78.8 29 7 44.6
10:15 1024 30.24 854 25.22 26.1 79 29 7.2 44.9
10:20 1024 30.24 854 25.22 26.1 79 28 6.7 44.1
10:25 1024 30.24 854 25.22 25.6 78.1 30 6.9 44.4
10:30 1024 30.24 854 25.22 26.2 79.1 28 6.3 43.3
10:35 1024 30.24 854 25.22 26.8 80.2 28 6.9 44.5
10:40 1024 30.24 854 25.22 26.9 80.4 29 7.9 46.2
10:45 1024 30.24 854 25.22 27 80.6 29 7.7 45.8
10:50 1024 30.24 854 25.22 26 78.7 31 7.8 46.1
10:55 1024 30.24 854 25.22 26.9 80.4 29 7.5 45.5
11:00 1024 30.24 854 25.22 27.5 81.5 27 7.3 45.1
11:05 1024 30.24 854 25.22 27.4 81.3 27 6.8 44.2
11:10 1024 30.24 854 25.22 27.4 81.3 25 6.2 43.1
11:15 1024 30.24 854 25.22 27.7 81.8 26 6.8 44.3
11:20 1024 30.24 854 25.22 26.5 79.6 27 6.3 43.3
11:25 1024 30.24 853 25.19 26.7 80.1 28 7 44.6
11:30 1024 30.24 853 25.19 27 80.6 25 5.6 42.1
11:35 1024 30.24 853 25.19 27.8 82 24 5.8 42.5
11:40 1024 30.24 853 25.19 27.8 82.1 25 6.5 43.8
11:45 1024 30.24 853 25.19 28.5 83.2 23 5.4 41.8
11:50 1024 30.24 853 25.19 28.7 83.7 24 6.2 43.2
11:55 1024 30.24 853 25.19 28.1 82.5 24 5.7 42.3
12:00 1024 30.24 853 25.19 28.5 83.2 23 5.4 41.7
12:05 1024 30.24 853 25.19 28.5 83.4 21 4.6 40.3
12:10 1024 30.24 853 25.19 29.2 84.5 21 5 41.1
12:15 1024 30.24 853 25.19 29.1 84.3 20 3.9 39
12:20 1024 30.24 853 25.19 29.1 84.3 21 5.2 41.3
12:25 1024 30.24 853 25.19 29.1 84.4 21 4.5 40.2
12:30 1024 30.24 853 25.19 29.8 85.7 19 4.4 40
12:35 1024 30.24 853 25.19 30.3 86.5 21 5.5 41.9
12:40 1024 30.24 853 25.19 29.7 85.4 20 4.8 40.6
12:45 1024 30.24 853 25.19 29.6 85.2 20 4.9 40.9
12:50 1024 30.24 853 25.19 29.9 85.9 21 5.4 41.7
12:55 1024 30.24 853 25.19 30.6 87.1 20 5.5 41.8
13:00 1024 30.24 853 25.19 30.4 86.7 18 4.1 39.4
13:05 1024 30.24 853 25.19 30.2 86.3 18 3.9 39
13:10 1024 30.24 853 25.19 30.4 86.8 18 4.1 39.3
13:15 1024 30.24 853 25.19 30.8 87.4 18 4.1 39.4
13:20 1024 30.24 853 25.19 30.9 87.5 19 5.2 41.3
13:25 1024 30.24 853 25.19 29.8 85.6 20 4.7 40.4
13:30 1024 30.24 853 25.19 30.1 86.2 19 4.7 40.4
13:35 1024 30.24 853 25.19 30.1 86.1 16 1.9 35.4
13:40 1024 30.24 853 25.19 30.5 86.9 14 0.6 33.1
13:45 1024 30.24 853 25.19 30.9 87.6 15 1.6 34.8
13:50 1024 30.24 853 25.19 31 87.7 14 0.5 32.9
13:55 1023 30.21 853 25.19 31 87.8 14 1.2 34.2
14:00 1023 30.21 853 25.19 30.9 87.6 14 1.1 34
14:05 1023 30.21 853 25.19 31.3 88.3 14 1.4 34.6
14:10 1023 30.21 853 25.19 32.2 90 13 1.1 34
14:15 1023 30.21 853 25.19 32.4 90.3 14 2.2 36
14:20 1023 30.21 853 25.19 31.8 89.2 14 1.1 33.9
14:25 1023 30.21 853 25.19 30.9 87.6 13 0.1 32.2
14:30 1023 30.21 853 25.19 30.5 86.8 11 -3.3 26.1
14:35 1023 30.21 853 25.19 31.2 88.2 11 -2.3 27.9
14:40 1023 30.21 853 25.19 31.5 88.7 11 -2.1 28.2
14:45 1023 30.21 853 25.19 31.6 88.9 11 -2.3 27.8
14:50 1023 30.21 853 25.19 30.7 87.3 11 -2.4 27.7
14:55 1023 30.21 852 25.16 30.6 87.1 12 -1.2 29.8
15:00 1023 30.21 852 25.16 30.9 87.6 11 -2.9 26.7
15:05 1023 30.21 852 25.16 31.2 88.1 11 -2.5 27.4
15:10 1023 30.21 852 25.16 30.8 87.4 11 -2.3 27.8
15:15 1023 30.21 852 25.16 31.1 88 12 -1.8 28.8
15:20 1023 30.21 852 25.16 31.9 89.4 10 -2.5 27.5
15:25 1023 30.21 852 25.16 32.2 90 11 -1.5 29.3
15:30 1023 30.21 852 25.16 31.2 88.2 12 -1.7 28.9
15:35 1023 30.21 852 25.16 31.7 89.1 12 -1.1 30.1
15:40 1023 30.21 852 25.16 32.2 89.9 12 0.1 32.2
15:45 1023 30.21 852 25.16 31 87.8 13 -0.3 31.5
15:50 1023 30.21 852 25.16 31.2 88.2 12 -0.7 30.7
15:55 1023 30.21 852 25.16 30.9 87.7 12 -0.9 30.3
16:00 1023 30.21 852 25.16 31.2 88.1 12 -1.1 30.1
16:05 1023 30.21 852 25.16 31 87.8 12 -1.3 29.7
16:10 1023 30.21 852 25.16 31.6 88.8 12 -0.8 30.5
16:15 1023 30.21 852 25.16 31.8 89.2 12 -0.4 31.3
16:20 1023 30.21 852 25.16 31.9 89.4 12 -0.6 31
16:25 1023 30.21 852 25.16 30.8 87.4 13 -0.7 30.7
16:30 1023 30.21 852 25.16 31.6 88.8 12 -1.2 29.9
16:35 1023 30.21 852 25.16 31.8 89.2 12 -1 30.1
16:40 1023 30.21 852 25.16 32 89.7 12 -0.9 30.5
16:45 1023 30.21 852 25.16 31.8 89.3 12 -0.3 31.5
16:50 1022 30.18 852 25.16 31.8 89.2 13 -0.2 31.7
16:55 1022 30.18 852 25.16 31.7 89 13 0.7 33.2
17:00 1022 30.18 852 25.16 31.8 89.3 12 -0.8 30.5
17:05 1022 30.18 852 25.16 31.8 89.2 12 -0.6 30.9
17:10 1022 30.18 852 25.16 31.4 88.4 12 -0.7 30.7
17:15 1022 30.18 852 25.16 31.4 88.5 12 -0.6 31
17:20 1022 30.18 852 25.16 31.6 88.8 12 -0.5 31.1
17:25 1022 30.18 852 25.16 31.4 88.5 12 -0.8 30.6
17:30 1022 30.18 852 25.16 31.1 88.1 12 -1 30.2
17:35 1022 30.18 852 25.16 30.9 87.6 12 -1 30.2
17:40 1022 30.18 852 25.16 31.1 87.9 13 -0.7 30.8
17:45 1022 30.18 852 25.16 30.8 87.5 13 -0.6 31
17:50 1022 30.18 852 25.16 30.7 87.2 13 -0.7 30.7
17:55 1022 30.18 851 25.13 30.8 87.5 13 -0.7 30.8
18:00 1022 30.18 851 25.13 31 87.7 13 -0.6 31
18:05 1022 30.18 851 25.13 30.8 87.4 13 -0.4 31.3
18:10 1022 30.18 851 25.13 30.4 86.8 13 -0.8 30.5
18:15 1022 30.18 851 25.13 30.2 86.4 14 -0.3 31.4
18:20 1022 30.18 851 25.13 30.1 86.1 13 -0.7 30.8
18:25 1022 30.18 851 25.13 30 85.9 13 -0.8 30.5
18:30 1022 30.18 851 25.13 29.8 85.6 14 -0.4 31.3
18:35 1022 30.18 851 25.13 29.8 85.6 14 -0.4 31.3
18:40 1022 30.18 851 25.13 29.6 85.3 14 -0.5 31.1
18:45 1022 30.18 851 25.13 29.5 85.1 15 0.2 32.3
18:50 1022 30.18 851 25.13 29.4 84.9 14 -0.5 31
18:55 1022 30.18 851 25.13 29.2 84.6 15 -0.2 31.7
19:00 1022 30.18 851 25.13 29.1 84.3 14 -0.7 30.8
19:05 1022 30.18 851 25.13 28.9 84 14 -0.7 30.8
19:10 1022 30.18 852 25.16 28.8 83.8 15 -0.4 31.3
19:15 1022 30.18 852 25.16 28.7 83.6 16 1 33.8
19:20 1022 30.18 852 25.16 28.6 83.5 16 1 33.8
19:25 1022 30.18 852 25.16 28.4 83.2 17 1.5 34.8
19:30 1022 30.18 852 25.16 28.2 82.8 17 1.2 34.2
19:35 1022 30.18 852 25.16 28 82.5 19 2.4 36.3
19:40 1023 30.21 852 25.16 27.3 81.1 24 5.3 41.5
19:45 1023 30.21 852 25.16 26.6 79.9 24 4.6 40.3
19:50 1023 30.21 852 25.16 26.1 78.9 24 3.9 39.1
19:55 1023 30.21 852 25.16 25.7 78.2 24 4 39.1
20:00 1023 30.21 852 25.16 25.5 78 24 4 39.1
20:05 1023 30.21 852 25.16 25.5 77.8 25 4.1 39.3
20:10 1023 30.21 852 25.16 25.3 77.6 25 4.1 39.5
20:15 1023 30.21 852 25.16 25.1 77.2 26 4.3 39.8
20:20 1023 30.21 852 25.16 24.9 76.8 26 4.3 39.8
20:25 1023 30.21 852 25.16 24.8 76.6 26 4.4 39.9
20:30 1023 30.21 852 25.16 24.6 76.2 27 4.4 39.9
20:35 1023 30.21 852 25.16 24.3 75.7 27 4.5 40.1
20:40 1023 30.21 852 25.16 23.9 75 28 4.7 40.4
20:45 1023 30.21 852 25.16 23.6 74.4 28 4.4 39.9
20:50 1023 30.21 852 25.16 23.4 74.1 29 4.5 40.1
20:55 1023 30.21 852 25.16 23.3 73.9 29 4.6 40.2
21:00 1023 30.21 852 25.16 23.2 73.7 30 4.7 40.5
21:05 1023 30.21 853 25.19 23 73.3 30 4.4 40
21:10 1023 30.21 853 25.19 23.1 73.5 29 4.5 40.1
21:15 1023 30.21 853 25.19 23 73.3 30 4.6 40.3
21:20 1023 30.21 853 25.19 22.8 73.1 30 4.6 40.3
21:25 1024 30.24 853 25.19 22.7 72.8 31 4.7 40.5
21:30 1024 30.24 853 25.19 22.3 72.2 31 4.7 40.4
21:35 1024 30.24 853 25.19 22.1 71.8 31 4.5 40.1
21:40 1024 30.24 853 25.19 22.2 71.9 31 4.4 40
21:45 1024 30.24 853 25.19 21.9 71.5 31 4.5 40
21:50 1024 30.24 853 25.19 21.6 71 33 4.7 40.4
21:55 1024 30.24 853 25.19 21.4 70.5 33 4.5 40
22:00 1024 30.24 853 25.19 21.3 70.3 32 4.3 39.7
22:05 1024 30.24 853 25.19 20.9 69.7 33 4 39.2
22:10 1024 30.24 853 25.19 20.8 69.4 33 4 39.1
22:15 1024 30.24 853 25.19 20.9 69.6 32 3.9 39.1
22:20 1024 30.24 853 25.19 21.1 70 32 4 39.2
22:25 1024 30.24 853 25.19 21 69.7 32 3.8 38.8
22:30 1024 30.24 853 25.19 20.7 69.3 33 3.9 39
22:35 1024 30.24 853 25.19 20.5 68.8 33 3.7 38.6
22:40 1024 30.24 853 25.19 20.4 68.7 33 3.8 38.8
22:45 1024 30.24 853 25.19 20.3 68.5 33 3.6 38.5
22:50 1024 30.24 853 25.19 20.2 68.3 33 3.6 38.4
22:55 1024 30.24 853 25.19 20 68 33 3.6 38.5
23:00 1024 30.24 853 25.19 19.9 67.8 33 3.3 38
23:05 1024 30.24 853 25.19 20 68 32 2.9 37.3
23:10 1024 30.24 853 25.19 20.2 68.4 32 3 37.4
23:15 1024 30.24 853 25.19 20.6 69 31 3 37.4
23:20 1024 30.24 853 25.19 20.4 68.8 32 3.3 38
23:25 1024 30.24 853 25.19 20 68 32 3.2 37.7
23:30 1024 30.24 853 25.19 19.9 67.7 32 3.1 37.5
23:35 1024 30.24 853 25.19 20 67.9 32 3.1 37.6
23:40 1024 30.24 853 25.19 20 67.9 32 3 37.4
23:45 1024 30.24 853 25.19 19.9 67.7 33 3.1 37.6
23:50 1024 30.24 853 25.19 19.8 67.7 33 3.3 37.9
23:55 1024 30.24 853 25.19 19.8 67.6 34 3.4 38.1
24:00 1024 30.24 853 25.19 19.7 67.4 33 3.3 38